Home > Weather > Barranquilla > Past weeks

Flag for Colombia Weather for the Past 2 Weeks in Barranquilla, Colombia

Now
79 °F

Passing clouds.


Feels Like: 82 °F
Forecast: 80 / 87 °F
Wind: 22 mph from Northeast

Location: Barranquilla / Ernestocortissoz

Current Time: Feb 13, 2016 at 9:26:07 PM

Latest Report: Feb 13, 2016 at 8:00 PM


Visibility: N/A

Pressure: 29.80 "Hg

Humidity: 89%

Dew point: 75 °F

Location of BarranquillaLocation

Historic Weather in Barranquilla — Graph

°F

Barranquilla Temperature Yesterday

Maximum temperature yesterday: 88 °F (at 12:00 PM)
Minimum temperature yesterday: 79 °F (at 1:00 AM)
Average temperature yesterday: 82 °F

High & Low Weather Summary for the Past Weeks

 TemperatureHumidityPressure
High93 °F (Jan 30, 2:00 PM)100% (Feb 10, 5:00 AM)29.95 "Hg (Feb 10, 5:00 AM)
Low73 °F (Feb 13, 7:00 AM)53% (Feb 7, 12:00 PM)29.75 "Hg (Feb 3, 4:00 PM)
Average82 °F78%29.83 "Hg
* Reported Jan 29 8:00 PM — Feb 13 8:00 PM, Barranquilla, Weather by CustomWeather, © 2016

Note: Actual official high and low records may vary slightly from our data, if they occured in-between our weather recording intervals... More about our weather records

Advertising

Barranquilla Weather History for the Previous 24 Hours

 ConditionsComfort  
Time TempWeatherWind HumidityBarometerVisibility
8:00 PM
Sat, Feb 13
79 °FPassing clouds.22 mph89%29.80 "HgN/A
7:00 PM79 °FPassing clouds.16 mph89%29.77 "HgN/A
6:00 PM81 °FPassing clouds.15 mph79%29.76 "Hg5 mi
5:00 PM84 °FClear.15 mph74%29.76 "Hg5 mi
4:00 PM86 °FWarm.13 mph66%29.75 "Hg5 mi
3:00 PM88 °FSunny.13 mph62%29.76 "Hg10 mi
2:00 PM88 °FSunny.16 mph62%29.78 "Hg10 mi
1:00 PM90 °FSunny.9 mph59%29.82 "Hg10 mi
12:00 PM90 °FSunny.12 mph59%29.83 "Hg10 mi
11:00 AM90 °FSunny.8 mph59%29.87 "Hg10 mi
10:00 AM88 °FSunny.8 mph62%29.88 "Hg10 mi
9:00 AM84 °FClear.3 mph74%29.87 "Hg5 mi
8:00 AM79 °FFog.3 mph89%29.85 "Hg2 mi
7:00 AM73 °FFog.3 mph100%29.82 "Hg1 mi
6:00 AM75 °FFog.3 mph100%29.80 "Hg3 mi
5:00 AM77 °FClear.3 mph94%29.77 "Hg10 mi
4:00 AM79 °FClear.7 mph89%29.75 "Hg10 mi
3:00 AM81 °FClear.8 mph89%29.75 "Hg10 mi
2:00 AM81 °FClear.8 mph74%29.75 "Hg10 mi
1:00 AM81 °FClear.8 mph74%29.77 "Hg10 mi
12:52 AM81 °FClear.8 mph74%29.77 "Hg10 mi
12:00 AM81 °FClear.10 mph79%29.78 "Hg10 mi
11:00 PM
Fri, Feb 12
81 °FClear.9 mph84%29.79 "Hg10 mi
10:00 PM81 °FClear.21 mph84%29.79 "Hg10 mi
9:00 PM81 °FClear.16 mph84%29.79 "Hg10 mi
Weather by CustomWeather, © 2016

See weather overviewHow to use our weather pages